Duncan, OK

5:18 PM CST on November 11, 2019 (GMT -0600)
Halliburton

Weather History for KDUC - September, 2019

Change the Weather History Date:

Saturday, September 28, 2019

  Actual Average (WUND) Record (WUND)
Temperature  
Mean Temperature 82 °F -  
Max Temperature 90 °F - - (-1)
Min Temperature 73 °F - - (-1)
Cooling Degree Days 16    
Growing Degree Days 32 (Base 50)    
Moisture  
Dew Point 70 °F    
Average Humidity 73    
Maximum Humidity 93    
Minimum Humidity 54    
Precipitation  
Precipitation 0.01 in - - ()
Sea Level Pressure  
Sea Level Pressure 29.87 in    
Wind  
Wind Speed 12 mph (SSE)    
Max Wind Speed 20 mph    
Max Gust Speed 24 mph    
Visibility 10 miles    
Events Rain    
Averages and records for this station are not official NWS values.
T = Trace of Precipitation, MM = Missing Value Source: NWS Daily Summary

Daily Weather History Graph

Daily Weather History Graph

Search for Another Location

Airport or City:

Astronomy

Sep. 28, 2019 Rise Set
Actual Time 7:24 AM CDT 7:20 PM CDT
Civil Twilight 6:59 AM CDT 7:45 PM CDT
Nautical Twilight 6:29 AM CDT 8:14 PM CDT
Astronomical Twilight 6:00 AM CDT 8:43 PM CDT
Moon 7:05 AM CDT (9/28) 7:45 PM CDT (9/28)
Length of Visible Light 12h 46m
Length of Day
11h 56m
Waning Crescent, 0% of the Moon is Illuminated
Sep 28
Waning Crescent
Sep 28
New
Oct 5
First Quarter
Oct 13
Full
Oct 21
Last Quarter

Hourly Weather History & Observations

Time (CDT) Temp. Heat Index Dew Point Humidity Pressure Visibility Wind Dir Wind Speed Gust Speed Precip Events Conditions
12:15 AM 78.3 °F - 64.8 °F 63% 29.76 in 10.0 mi SSE 12.7 mph - N/A   Clear
12:35 AM 77.2 °F - 65.3 °F 67% 29.77 in 10.0 mi SSE 10.4 mph - N/A   Clear
12:55 AM 76.3 °F - 65.8 °F 70% 29.77 in 10.0 mi SSE 10.4 mph - N/A   Clear
1:15 AM 75.2 °F - 66.4 °F 74% 29.77 in 10.0 mi SSE 8.1 mph - N/A   Clear
1:35 AM 74.8 °F - 66.7 °F 76% 29.78 in 10.0 mi SSE 8.1 mph - N/A   Clear
1:55 AM 74.7 °F - 67.5 °F 78% 29.78 in 10.0 mi SE 8.1 mph - N/A   Clear
2:35 AM 75.4 °F - 69.4 °F 82% 29.79 in 10.0 mi SSE 10.4 mph - N/A   Clear
2:55 AM 75.2 °F - 70.0 °F 84% 29.79 in 10.0 mi SE 9.2 mph - N/A   Clear
3:15 AM 74.8 °F - 70.2 °F 85% 29.79 in 10.0 mi SSE 10.4 mph - N/A   Clear
3:35 AM 75.2 °F - 70.5 °F 85% 29.79 in 10.0 mi SSE 12.7 mph - N/A   Clear
3:55 AM 75.2 °F - 70.9 °F 86% 29.80 in 10.0 mi SSE 11.5 mph - N/A   Clear
4:15 AM 75.2 °F - 71.2 °F 87% 29.79 in 10.0 mi SSE 12.7 mph - N/A   Clear
4:35 AM 74.8 °F - 71.2 °F 88% 29.79 in 10.0 mi SSE 11.5 mph - N/A   Clear
4:55 AM 74.8 °F - 71.4 °F 89% 29.80 in 10.0 mi South 10.4 mph - N/A   Clear
5:15 AM 74.3 °F - 71.4 °F 91% 29.82 in 10.0 mi South 9.2 mph - N/A   Clear
5:35 AM 73.9 °F - 71.2 °F 91% 29.83 in 10.0 mi South 9.2 mph - N/A   Clear
5:55 AM 73.8 °F - 71.2 °F 92% 29.84 in 10.0 mi SSE 9.2 mph - N/A   Clear
6:15 AM 73.8 °F - 71.2 °F 92% 29.86 in 10.0 mi SSE 9.2 mph - N/A   Clear
6:35 AM 73.6 °F - 71.2 °F 92% 29.86 in 10.0 mi SSE 10.4 mph - N/A   Clear
6:55 AM 73.4 °F - 71.2 °F 93% 29.86 in 10.0 mi SSE 10.4 mph - N/A   Clear
7:15 AM 73.4 °F - 71.2 °F 93% 29.87 in 10.0 mi South 6.9 mph - N/A   Clear
7:35 AM 73.6 °F - 71.4 °F 93% 29.88 in 10.0 mi SSE 10.4 mph - N/A   Mostly Cloudy
7:55 AM 73.9 °F - 71.6 °F 92% 29.89 in 10.0 mi SSE 9.2 mph - N/A   Overcast
8:15 AM 74.5 °F - 71.6 °F 91% 29.90 in 10.0 mi South 11.5 mph - N/A   Mostly Cloudy
8:35 AM 74.3 °F - 72.0 °F 92% 29.92 in 10.0 mi South 8.1 mph - N/A   Mostly Cloudy
8:55 AM 74.5 °F - 72.3 °F 93% 29.93 in 10.0 mi South 9.2 mph - 0.01 in Rain Light Rain
9:15 AM 75.2 °F - 72.5 °F 91% 29.92 in 10.0 mi SSE 10.4 mph - N/A   Overcast
9:35 AM 75.6 °F - 73.0 °F 92% 29.93 in 10.0 mi South 10.4 mph - N/A   Scattered Clouds
9:55 AM 77.4 °F - 73.4 °F 88% 29.93 in 10.0 mi South 12.7 mph - N/A   Clear
10:15 AM 78.6 °F - 73.0 °F 83% 29.93 in 10.0 mi South 13.8 mph - N/A   Scattered Clouds
10:35 AM 79.9 °F - 72.9 °F 79% 29.94 in 10.0 mi South 13.8 mph - N/A   Scattered Clouds
10:55 AM 80.1 °F 83.8 °F 71.8 °F 76% 29.94 in 10.0 mi SSW 12.7 mph - N/A   Scattered Clouds
11:15 AM 81.1 °F 85.4 °F 71.6 °F 73% 29.94 in 10.0 mi South 12.7 mph - N/A   Clear
11:35 AM 82.2 °F 86.4 °F 70.9 °F 68% 29.94 in 10.0 mi South 16.1 mph - N/A   Clear
11:55 AM 82.8 °F 87.2 °F 70.9 °F 67% 29.94 in 10.0 mi South 16.1 mph - N/A   Clear
12:15 PM 82.8 °F 86.0 °F 68.4 °F 62% 29.94 in 10.0 mi South 11.5 mph - N/A   Clear
12:35 PM 83.7 °F 88.0 °F 70.3 °F 64% 29.94 in 10.0 mi South 13.8 mph - N/A   Clear
12:55 PM 83.8 °F 88.3 °F 70.3 °F 64% 29.94 in 10.0 mi SSE 12.7 mph - N/A   Clear
1:15 PM 86.2 °F 91.4 °F 70.7 °F 60% 29.93 in 10.0 mi South 13.8 mph - N/A   Scattered Clouds
2:15 PM 86.9 °F 92.1 °F 70.5 °F 58% 29.91 in 10.0 mi SSE 12.7 mph - N/A   Scattered Clouds
2:35 PM 88.9 °F 95.6 °F 72.0 °F 57% 29.91 in 10.0 mi SSE 15.0 mph 20.7 mph N/A   Mostly Cloudy
2:55 PM 88.3 °F 95.4 °F 72.1 °F 59% 29.90 in 10.0 mi SSE 15.0 mph - N/A   Scattered Clouds
3:15 PM 86.7 °F 92.5 °F 71.4 °F 60% 29.89 in 10.0 mi SSE 13.8 mph - N/A   Mostly Cloudy
3:35 PM 89.1 °F 95.5 °F 71.4 °F 56% 29.89 in 10.0 mi SSE 11.5 mph 19.6 mph N/A   Scattered Clouds
3:55 PM 89.2 °F 95.9 °F 71.6 °F 56% 29.88 in 10.0 mi South 16.1 mph - N/A   Scattered Clouds
4:15 PM 90.0 °F 96.4 °F 71.2 °F 54% 29.88 in 10.0 mi SSE 15.0 mph - N/A   Scattered Clouds
4:35 PM 89.4 °F 95.8 °F 71.1 °F 55% 29.87 in 10.0 mi SSE 17.3 mph 21.9 mph N/A   Scattered Clouds
4:55 PM 89.6 °F 96.2 °F 71.4 °F 55% 29.87 in 10.0 mi SSE 15.0 mph - N/A   Scattered Clouds
5:15 PM 89.6 °F 96.6 °F 71.8 °F 56% 29.87 in 10.0 mi SE 15.0 mph - N/A   Mostly Cloudy
5:35 PM 88.7 °F 94.3 °F 70.5 °F 55% 29.87 in 10.0 mi SSE 13.8 mph - N/A   Scattered Clouds
5:55 PM 88.3 °F 93.2 °F 69.8 °F 54% 29.87 in 10.0 mi SSE 19.6 mph 24.2 mph N/A   Scattered Clouds
6:15 PM 87.4 °F 92.7 °F 70.5 °F 57% 29.87 in 10.0 mi SSE 13.8 mph - N/A   Clear
6:35 PM 86.4 °F 92.2 °F 71.4 °F 61% 29.87 in 10.0 mi SE 13.8 mph - N/A   Clear
6:55 PM 85.1 °F 90.4 °F 71.4 °F 63% 29.87 in 10.0 mi SE 11.5 mph - N/A   Clear
7:15 PM 83.5 °F 88.5 °F 71.4 °F 67% 29.87 in 10.0 mi SE 10.4 mph - N/A   Clear
7:35 PM 82.6 °F 87.1 °F 71.2 °F 68% 29.87 in 10.0 mi SE 10.4 mph - N/A   Clear
7:55 PM 81.9 °F 86.2 °F 71.1 °F 70% 29.87 in 10.0 mi SE 11.5 mph - N/A   Clear
8:15 PM 81.5 °F 85.5 °F 70.9 °F 70% 29.87 in 10.0 mi SE 11.5 mph - N/A   Clear
8:35 PM 81.5 °F 85.3 °F 70.5 °F 69% 29.88 in 10.0 mi SE 11.5 mph - N/A   Clear
8:55 PM 81.3 °F 85.0 °F 70.2 °F 69% 29.89 in 10.0 mi SE 12.7 mph - N/A   Clear
9:15 PM 81.3 °F 84.6 °F 69.6 °F 67% 29.90 in 10.0 mi SE 12.7 mph - N/A   Clear
9:35 PM 80.8 °F 83.9 °F 69.4 °F 68% 29.90 in 10.0 mi SE 15.0 mph - N/A   Clear
9:55 PM 80.4 °F 83.5 °F 69.4 °F 69% 29.90 in 10.0 mi SE 12.7 mph - N/A   Clear
10:15 PM 80.6 °F 83.6 °F 69.1 °F 68% 29.91 in 10.0 mi SE 13.8 mph 20.7 mph N/A   Clear
10:35 PM 80.1 °F 82.9 °F 68.9 °F 69% 29.91 in 10.0 mi SE 12.7 mph - N/A   Clear
10:55 PM 79.9 °F - 68.7 °F 69% 29.91 in 10.0 mi SSE 13.8 mph - N/A   Clear
11:15 PM 79.9 °F - 68.5 °F 68% 29.91 in 10.0 mi SSE 12.7 mph - N/A   Clear
11:35 PM 79.3 °F - 68.4 °F 69% 29.91 in 10.0 mi SSE 12.7 mph - N/A   Clear
11:55 PM 79.9 °F - 67.8 °F 66% 29.92 in 10.0 mi SSE 15.0 mph - N/A   Clear